Regional Weather Roundup
Issued by NWS

Home | Current Version | Previous Version | Text Only | Print | Product List | Glossary On
Versions: 1 2 3 4 5 6 7 8 9 10 11 12 13 14 15 16 17 18 19 20 21 22 23 24 25 26 27 28
000
ASUS46 KPQR 261910
RWROR

OREGON REGIONAL WEATHER ROUNDUP
NATIONAL WEATHER SERVICE PORTLAND OR
1100 AM PST SUN FEB 26 2017

NOTE: "FAIR" INDICATES FEW OR NO CLOUDS BELOW 12,000 FEET WITH
NO SIGNIFICANT WEATHER AND/OR OBSTRUCTIONS TO VISIBILITY.

ORZ001>013-262000-
NORTHWEST OREGON


CITY           SKY/WX    TMP DP  RH WIND       PRES   REMARKS
ASTORIA        LGT RAIN  40  32  73 W3        29.67R
NEWPORT        CLOUDY    43  37  81 W16G25    29.77R
PORTLAND       CLOUDY    39  35  86 SW8       29.72R WCI  33
VANCOUVER WA   CLOUDY    39  37  92 SW5       29.71R
SCAPPOOSE      CLOUDY    39  36  89 S3        29.70S
HILLSBORO      CLOUDY    38  36  92 SW5       29.70R WCI  34
AURORA         CLOUDY    39  35  86 S8        29.73R WCI  33
MCMINNVILLE    CLOUDY    40  36  86 SW9       29.72S WCI  34
SALEM          CLOUDY    38  35  89 S10       29.72F WCI  31
CORVALLIS        N/A     37  34  87 S13       29.75R WCI  29
EUGENE         CLOUDY    37  36  96 SW9       29.77S WCI  30
$$

ORZ021-028-262000-
SOUTHWEST OREGON


CITY           SKY/WX    TMP DP  RH WIND       PRES   REMARKS
NORTH BEND     CLOUDY    43  41  93 S7        29.82F
BROOKINGS      LGT RAIN  42  39  89 NW9       29.88F
ROSEBURG       LGT RAIN  36  34  92 NW6       29.82R FOG     WCI  31
SEXTON SUMMIT  SNOW      28  27  96 SW12G23   29.69F VSB<1/4 WCI  18
MEDFORD        PTSUNNY   40  32  73 NE3       29.80F
$$

ORZ014>016-041-262000-
COLUMBIA GORGE


CITY           SKY/WX    TMP DP  RH WIND       PRES   REMARKS
TROUTDALE      CLOUDY    38  35  89 E3        29.72R
THE DALLES     CLOUDY    43  32  65 S3        29.70F
$$

ORZ029>031-041-044-049-050-061>064-502-503-505>511-262000-
EASTERN OREGON


CITY           SKY/WX    TMP DP  RH WIND       PRES   REMARKS
REDMOND        PTSUNNY   38  19  46 S15G23    29.62F WCI  29
BEND           PTSUNNY   36  21  55 S12G18    29.62F WCI  27
PRINEVILLE     PTSUNNY   36  19  51 S16G22    29.63F WCI  26
KLAMATH FALLS  CLOUDY    30  24  78 SE7       29.74F WCI  23
LAKEVIEW       CLOUDY    30  18  59 S20       29.72F WCI  18
HERMISTON      CLOUDY    39  34  82 CALM      29.74F
PENDLETON      LGT SNOW  34  32  92 E6        29.71F FOG     WCI  29
JOHN DAY       LGT SNOW  30  25  81 CALM      29.68F
MEACHAM        LGT SNOW  28  22  78 CALM      29.64F VSB 1
LA GRANDE      CLOUDY    34  25  69 S16       29.69F WCI  23
BAKER CITY     CLOUDY    31  23  72 SE15      29.70F WCI  20
BURNS          CLOUDY    26  19  74 N5        29.70F WCI  20
ROME             N/A     33  22  63 S16       29.72F WCI  23
ONTARIO        CLOUDY    35  24  64 CALM      29.82F
$$




USA.gov is the U.S. government's official web portal to all federal, state and local government web resources and services.